| time (UTC) | temp F | wind direction | speed MPH | gust MPH | rain 1hr in | rain 24hr in | rain mn in | humidity % | barometer mb |
| 20260507090651 | 40 | 265 | 0.0 | 8.0 | 0.00 | 0.00 | 0.00 | 42 | 1020.5 |
| 20260507090151 | 40 | 153 | 0.0 | 3.0 | 0.00 | 0.00 | 0.00 | 45 | 1020.4 |
| 20260507085651 | 39 | 146 | 1.0 | 4.0 | 0.00 | 0.00 | 0.00 | 43 | 1020.4 |
| 20260507085151 | 38 | 64 | 0.0 | 6.0 | 0.00 | 0.00 | 0.00 | 45 | 1020.4 |
| 20260507084651 | 38 | 312 | 0.0 | 4.0 | 0.00 | 0.00 | 0.00 | 46 | 1020.5 |
| 20260507084151 | 37 | 313 | 2.0 | 4.0 | 0.00 | 0.00 | 0.00 | 49 | 1020.3 |
| 20260507083651 | 36 | 316 | 0.0 | 5.0 | 0.00 | 0.00 | 0.00 | 49 | 1020.4 |
| 20260507083151 | 36 | 309 | 4.0 | 6.0 | 0.00 | 0.00 | 0.00 | 48 | 1020.4 |
| 20260507082651 | 36 | 331 | 1.0 | 7.0 | 0.00 | 0.00 | 0.00 | 50 | 1020.3 |
| 20260507082151 | 35 | 300 | 6.0 | 9.0 | 0.00 | 0.00 | 0.00 | 49 | 1020.3 |
| 20260507081651 | 36 | 322 | 2.0 | 4.0 | 0.00 | 0.00 | 0.00 | 50 | 1020.2 |
| 20260507081151 | 35 | 291 | 3.0 | 5.0 | 0.00 | 0.00 | 0.00 | 50 | 1020.2 |
| 20260507080651 | 34 | 261 | 0.0 | 9.0 | 0.00 | 0.00 | 0.00 | 50 | 1020.2 |
| 20260507080151 | 34 | 285 | 1.0 | 6.0 | 0.00 | 0.00 | 0.00 | 50 | 1020.0 |
| 20260507075651 | 34 | 295 | 3.0 | 7.0 | 0.00 | 0.00 | 0.00 | 50 | 1020.0 |
| 20260507075151 | 33 | 337 | 0.0 | 6.0 | 0.00 | 0.00 | 0.00 | 52 | 1020.1 |
| 20260507074651 | 33 | 312 | 0.0 | 7.0 | 0.00 | 0.00 | 0.00 | 54 | 1020.0 |
| 20260507074151 | 33 | 334 | 5.0 | 9.0 | 0.00 | 0.00 | 0.00 | 51 | 1020.0 |
| 20260507073651 | 33 | 261 | 0.0 | 0.0 | 0.00 | 0.00 | 0.00 | 54 | 1020.1 |
| 20260507073151 | 32 | 261 | 0.0 | 3.0 | 0.00 | 0.00 | 0.00 | 56 | 1020.1 |
| 20260507072651 | 32 | 46 | 0.0 | 8.0 | 0.00 | 0.00 | 0.00 | 57 | 1020.0 |
| 20260507072151 | 31 | 351 | 0.0 | 7.0 | 0.00 | 0.00 | 0.00 | 55 | 1020.0 |
| 20260507071651 | 31 | 323 | 7.0 | 8.0 | 0.00 | 0.00 | 0.00 | 56 | 1020.0 |
| 20260507071151 | 31 | 302 | 3.0 | 6.0 | 0.00 | 0.00 | 0.00 | 57 | 1020.0 |
| 20260507070652 | 31 | 319 | 4.0 | 7.0 | 0.00 | 0.00 | 0.00 | 58 | 1020.0 |
| 20260507070152 | 31 | 329 | 5.0 | 5.0 | 0.00 | 0.00 | 0.00 | 58 | 1019.9 |
| 20260507065652 | 30 | 337 | 1.0 | 5.0 | 0.00 | 0.00 | 0.00 | 59 | 1019.9 |
| 20260507065152 | 30 | 278 | 1.0 | 6.0 | 0.00 | 0.00 | 0.00 | 59 | 1019.9 |
| 20260507064652 | 30 | 313 | 0.0 | 4.0 | 0.00 | 0.00 | 0.00 | 60 | 1019.8 |
| 20260507064152 | 29 | 260 | 0.0 | 1.0 | 0.00 | 0.00 | 0.00 | 63 | 1019.8 |
| 20260507063652 | 29 | 236 | 0.0 | 2.0 | 0.00 | 0.00 | 0.00 | 63 | 1019.8 |
| 20260507063152 | 29 | 306 | 0.0 | 3.0 | 0.00 | 0.00 | 0.00 | 63 | 1019.8 |
| 20260507062652 | 28 | 279 | 0.0 | 5.0 | 0.00 | 0.00 | 0.00 | 64 | 1019.8 |
| 20260507062152 | 28 | 272 | 0.0 | 0.0 | 0.00 | 0.00 | 0.00 | 65 | 1019.8 |
| 20260507061652 | 28 | 272 | 0.0 | 3.0 | 0.00 | 0.00 | 0.00 | 65 | 1019.6 |
| 20260507061152 | 28 | 302 | 0.0 | 2.0 | 0.00 | 0.00 | 0.00 | 66 | 1019.6 |
| 20260507060652 | 28 | 324 | 0.0 | 0.0 | 0.00 | 0.00 | 0.00 | 65 | 1019.5 |
| 20260507060152 | 27 | 324 | 0.0 | 0.0 | 0.00 | 0.00 | 0.00 | 65 | 1019.4 |
| 20260507055652 | 27 | 324 | 0.0 | 0.0 | 0.00 | 0.00 | 0.00 | 67 | 1019.6 |
| 20260507055152 | 27 | 295 | 0.0 | 0.0 | 0.00 | 0.00 | 0.00 | 69 | 1019.5 |
| 20260507054652 | 26 | 295 | 0.0 | 2.0 | 0.00 | 0.00 | 0.00 | 69 | 1019.6 |
| 20260507054152 | 26 | 272 | 0.0 | 1.0 | 0.00 | 0.00 | 0.00 | 70 | 1019.6 |
| 20260507053652 | 25 | 284 | 1.0 | 2.0 | 0.00 | 0.00 | 0.00 | 70 | 1019.5 |
| 20260507053152 | 25 | 300 | 0.0 | 3.0 | 0.00 | 0.00 | 0.00 | 70 | 1019.5 |
| 20260507052652 | 25 | 306 | 0.0 | 4.0 | 0.00 | 0.00 | 0.00 | 71 | 1019.5 |
| 20260507052152 | 25 | 292 | 0.0 | 2.0 | 0.00 | 0.00 | 0.00 | 72 | 1019.4 |
| 20260507051652 | 25 | 300 | 0.0 | 0.0 | 0.00 | 0.00 | 0.00 | 72 | 1019.4 |
| 20260507051152 | 24 | 300 | 0.0 | 0.0 | 0.00 | 0.00 | 0.00 | 73 | 1019.4 |
| 20260507050652 | 24 | 300 | 0.0 | 4.0 | 0.00 | 0.00 | 0.00 | 74 | 1019.4 |
| 20260507050152 | 23 | 310 | 0.0 | 0.0 | 0.00 | 0.00 | 0.00 | 75 | 1019.3 |
| 20260507045652 | 23 | 310 | 0.0 | 0.0 | 0.00 | 0.00 | 0.00 | 76 | 1019.3 |
| 20260507045152 | 23 | 310 | 0.0 | 0.0 | 0.00 | 0.00 | 0.00 | 77 | 1019.2 |
| 20260507044652 | 23 | 310 | 0.0 | 0.0 | 0.00 | 0.00 | 0.00 | 77 | 1019.2 |
| 20260507044152 | 22 | 310 | 0.0 | 0.0 | 0.00 | 0.00 | 0.00 | 78 | 1019.2 |
| 20260507043652 | 22 | 310 | 0.0 | 0.0 | 0.00 | 0.00 | 0.00 | 79 | 1019.2 |
| 20260507043152 | 21 | 310 | 0.0 | 0.0 | 0.00 | 0.00 | 0.00 | 80 | 1019.1 |
| 20260507042652 | 21 | 310 | 0.0 | 1.0 | 0.00 | 0.00 | 0.00 | 80 | 1019.1 |
| 20260507042152 | 20 | 306 | 1.0 | 2.0 | 0.00 | 0.00 | 0.00 | 81 | 1019.1 |
| 20260507041652 | 20 | 106 | 0.0 | 0.0 | 0.00 | 0.00 | 0.00 | 81 | 1019.0 |
| 20260507041152 | 19 | 106 | 0.0 | 0.0 | 0.00 | 0.00 | 0.00 | 82 | 1019.1 |
| 20260507040652 | 19 | 106 | 0.0 | 0.0 | 0.00 | 0.00 | 0.00 | 82 | 1019.0 |
| 20260507040152 | 19 | 106 | 0.0 | 0.0 | 0.00 | 0.00 | 0.00 | 81 | 1018.9 |
| 20260507035652 | 19 | 106 | 0.0 | 0.0 | 0.00 | 0.00 | 0.00 | 82 | 1018.9 |
| 20260507035152 | 19 | 106 | 0.0 | 0.0 | 0.00 | 0.00 | 0.00 | 82 | 1018.9 |
| 20260507034652 | 18 | 106 | 0.0 | 0.0 | 0.00 | 0.00 | 0.00 | 82 | 1018.7 |
| 20260507034152 | 18 | 106 | 0.0 | 0.0 | 0.00 | 0.00 | 0.00 | 82 | 1018.7 |
| 20260507033652 | 18 | 106 | 0.0 | 0.0 | 0.00 | 0.00 | 0.00 | 82 | 1018.7 |
| 20260507033152 | 18 | 106 | 0.0 | 0.0 | 0.00 | 0.00 | 0.00 | 82 | 1018.7 |
| 20260507032652 | 18 | 106 | 0.0 | 0.0 | 0.00 | 0.00 | 0.00 | 82 | 1018.7 |
| 20260507032152 | 18 | 106 | 0.0 | 0.0 | 0.00 | 0.00 | 0.00 | 81 | 1018.7 |
| 20260507031652 | 18 | 106 | 0.0 | 0.0 | 0.00 | 0.00 | 0.00 | 81 | 1018.9 |
| 20260507031152 | 18 | 106 | 0.0 | 0.0 | 0.00 | 0.00 | 0.00 | 81 | 1018.7 |
| 20260507030652 | 18 | 106 | 0.0 | 0.0 | 0.00 | 0.00 | 0.00 | 81 | 1018.7 |
| 20260507030152 | 18 | 106 | 0.0 | 0.0 | 0.00 | 0.00 | 0.00 | 81 | 1018.6 |
| 20260507025652 | 18 | 106 | 0.0 | 0.0 | 0.00 | 0.00 | 0.00 | 80 | 1018.6 |
| 20260507025152 | 18 | 106 | 0.0 | 0.0 | 0.00 | 0.00 | 0.00 | 80 | 1018.6 |
| 20260507024652 | 18 | 106 | 0.0 | 0.0 | 0.00 | 0.00 | 0.00 | 80 | 1018.6 |
| 20260507024152 | 18 | 106 | 0.0 | 0.0 | 0.00 | 0.00 | 0.00 | 80 | 1018.6 |
| 20260507023652 | 18 | 106 | 0.0 | 0.0 | 0.00 | 0.00 | 0.00 | 80 | 1018.6 |
| 20260507023152 | 18 | 106 | 0.0 | 0.0 | 0.00 | 0.00 | 0.00 | 80 | 1018.6 |
| 20260507022652 | 18 | 106 | 0.0 | 0.0 | 0.00 | 0.00 | 0.00 | 79 | 1018.5 |
| 20260507022152 | 18 | 106 | 0.0 | 0.0 | 0.00 | 0.00 | 0.00 | 79 | 1018.4 |
| 20260507021652 | 18 | 106 | 0.0 | 0.0 | 0.00 | 0.00 | 0.00 | 79 | 1018.5 |
| 20260507021152 | 19 | 106 | 0.0 | 0.0 | 0.00 | 0.00 | 0.00 | 79 | 1018.4 |
| 20260507020652 | 19 | 106 | 0.0 | 0.0 | 0.00 | 0.00 | 0.00 | 78 | 1018.4 |
| 20260507020152 | 19 | 106 | 0.0 | 0.0 | 0.00 | 0.00 | 0.00 | 78 | 1018.4 |
| 20260507015652 | 19 | 106 | 0.0 | 0.0 | 0.00 | 0.00 | 0.00 | 78 | 1018.4 |
| 20260507015152 | 19 | 106 | 0.0 | 0.0 | 0.00 | 0.00 | 0.00 | 78 | 1018.4 |
| 20260507014652 | 19 | 106 | 0.0 | 0.0 | 0.00 | 0.00 | 0.00 | 78 | 1018.3 |
| 20260507014152 | 19 | 106 | 0.0 | 0.0 | 0.00 | 0.00 | 0.00 | 77 | 1018.4 |
| 20260507013652 | 19 | 106 | 0.0 | 0.0 | 0.00 | 0.00 | 0.00 | 77 | 1018.4 |
| 20260507013152 | 19 | 106 | 0.0 | 0.0 | 0.00 | 0.00 | 0.00 | 77 | 1018.4 |
| 20260507012652 | 19 | 106 | 0.0 | 0.0 | 0.00 | 0.00 | 0.00 | 77 | 1018.3 |
| 20260507012152 | 20 | 106 | 0.0 | 0.0 | 0.00 | 0.00 | 0.00 | 76 | 1018.3 |
| 20260507011652 | 20 | 106 | 0.0 | 0.0 | 0.00 | 0.00 | 0.00 | 76 | 1018.2 |
| 20260507011152 | 20 | 106 | 0.0 | 0.0 | 0.00 | 0.00 | 0.00 | 76 | 1018.2 |
| 20260507010652 | 20 | 106 | 0.0 | 0.0 | 0.00 | 0.00 | 0.00 | 76 | 1018.2 |
| 20260507010152 | 20 | 106 | 0.0 | 0.0 | 0.00 | 0.00 | 0.00 | 75 | 1018.2 |
| 20260507005652 | 21 | 106 | 0.0 | 0.0 | 0.00 | 0.00 | 0.00 | 75 | 1018.2 |
| 20260507005152 | 21 | 106 | 0.0 | 0.0 | 0.00 | 0.00 | 0.00 | 74 | 1018.2 |
| 20260507004652 | 21 | 106 | 0.0 | 3.0 | 0.00 | 0.00 | 0.00 | 74 | 1018.2 |
| 20260507004152 | 21 | 135 | 3.0 | 3.0 | 0.00 | 0.00 | 0.00 | 74 | 1018.2 |
| 20260507003652 | 21 | 313 | 0.0 | 0.0 | 0.00 | 0.00 | 0.00 | 73 | 1018.1 |
| 20260507003152 | 21 | 313 | 0.0 | 0.0 | 0.00 | 0.00 | 0.00 | 73 | 1018.1 |
| 20260507002652 | 22 | 313 | 0.0 | 0.0 | 0.00 | 0.00 | 0.00 | 72 | 1018.1 |
| 20260507002152 | 22 | 313 | 0.0 | 0.0 | 0.00 | 0.00 | 0.00 | 71 | 1018.1 |
| 20260507001652 | 22 | 313 | 0.0 | 0.0 | 0.00 | 0.00 | 0.00 | 71 | 1018.1 |
| 20260507001152 | 23 | 313 | 0.0 | 0.0 | 0.00 | 0.00 | 0.00 | 71 | 1018.0 |
| 20260507000853 | 23 | 313 | 0.0 | 0.0 | 0.00 | 0.00 | 0.00 | 70 | 1018.0 |
| 20260507000652 | 23 | 313 | 0.0 | 0.0 | 0.00 | 0.00 | 0.00 | 70 | 1018.0 |
| 20260507000152 | 23 | 313 | 0.0 | 0.0 | 0.00 | 0.00 | 0.00 | 70 | 1018.1 |
| 20260506235652 | 23 | 313 | 0.0 | 0.0 | 0.00 | 0.00 | 0.00 | 69 | 1018.0 |
| 20260506235152 | 24 | 313 | 0.0 | 0.0 | 0.00 | 0.00 | 0.00 | 69 | 1018.0 |
| 20260506234652 | 24 | 313 | 0.0 | 0.0 | 0.00 | 0.00 | 0.00 | 68 | 1018.0 |
| 20260506234152 | 25 | 313 | 0.0 | 0.0 | 0.00 | 0.00 | 0.00 | 68 | 1018.0 |
| 20260506233652 | 25 | 313 | 0.0 | 0.0 | 0.00 | 0.00 | 0.00 | 67 | 1017.8 |
| 20260506233152 | 25 | 313 | 0.0 | 0.0 | 0.00 | 0.00 | 0.00 | 67 | 1018.0 |
| 20260506232652 | 26 | 313 | 0.0 | 0.0 | 0.00 | 0.00 | 0.00 | 67 | 1018.0 |
| 20260506232152 | 26 | 313 | 0.0 | 2.0 | 0.00 | 0.00 | 0.00 | 67 | 1018.0 |
| 20260506231652 | 26 | 320 | 1.0 | 3.0 | 0.00 | 0.00 | 0.00 | 67 | 1017.8 |
| 20260506231152 | 26 | 348 | 0.0 | 4.0 | 0.00 | 0.00 | 0.00 | 67 | 1017.8 |
| 20260506230652 | 26 | 340 | 3.0 | 4.0 | 0.00 | 0.00 | 0.00 | 67 | 1017.8 |
| 20260506230152 | 26 | 323 | 2.0 | 6.0 | 0.00 | 0.00 | 0.00 | 66 | 1017.8 |
| 20260506225652 | 26 | 319 | 2.0 | 5.0 | 0.00 | 0.00 | 0.00 | 66 | 1017.8 |
| 20260506225152 | 26 | 319 | 2.0 | 5.0 | 0.00 | 0.00 | 0.00 | 66 | 1017.8 |
| 20260506224652 | 26 | 333 | 5.0 | 6.0 | 0.00 | 0.00 | 0.00 | 67 | 1017.7 |
| 20260506224152 | 26 | 317 | 3.0 | 6.0 | 0.00 | 0.00 | 0.00 | 67 | 1017.7 |
| 20260506223652 | 26 | 320 | 3.0 | 6.0 | 0.00 | 0.00 | 0.00 | 67 | 1017.7 |
| 20260506223152 | 26 | 313 | 2.0 | 7.0 | 0.00 | 0.00 | 0.00 | 67 | 1017.7 |
| 20260506222953 | 26 | 309 | 5.0 | 7.0 | 0.00 | 0.00 | 0.00 | 67 | 1017.7 |
| 20260506222652 | 26 | 313 | 4.0 | 7.0 | 0.00 | 0.00 | 0.00 | 66 | 1017.7 |
| 20260506222152 | 26 | 316 | 4.0 | 7.0 | 0.00 | 0.00 | 0.00 | 66 | 1017.7 |
| 20260506221652 | 27 | 319 | 3.0 | 7.0 | 0.00 | 0.00 | 0.00 | 66 | 1017.6 |
| 20260506221152 | 27 | 305 | 2.0 | 10.0 | 0.00 | 0.00 | 0.00 | 66 | 1017.6 |
| 20260506220753 | 27 | 289 | 4.0 | 9.0 | 0.00 | 0.00 | 0.00 | 66 | 1017.5 |
| 20260506220152 | 27 | 315 | 4.0 | 8.0 | 0.00 | 0.00 | 0.00 | 66 | 1017.4 |
| 20260506215652 | 27 | 319 | 6.0 | 10.0 | 0.00 | 0.00 | 0.00 | 65 | 1017.5 |
| 20260506215152 | 27 | 323 | 5.0 | 8.0 | 0.00 | 0.00 | 0.00 | 65 | 1017.5 |
| 20260506214652 | 27 | 309 | 0.0 | 3.0 | 0.00 | 0.00 | 0.00 | 65 | 1017.6 |
| 20260506214554 | 27 | 309 | 0.0 | 3.0 | 0.00 | 0.00 | 0.00 | 65 | 1017.5 |
| 20260506214152 | 27 | 323 | 2.0 | 6.0 | 0.00 | 0.00 | 0.00 | 64 | 1017.5 |
| 20260506213653 | 27 | 278 | 2.0 | 7.0 | 0.00 | 0.00 | 0.00 | 65 | 1017.5 |
| 20260506213454 | 27 | 331 | 4.0 | 5.0 | 0.00 | 0.00 | 0.00 | 65 | 1017.5 |
| 20260506213152 | 27 | 306 | 1.0 | 5.0 | 0.00 | 0.00 | 0.00 | 64 | 1017.4 |
| 20260506212652 | 27 | 319 | 0.0 | 0.0 | 0.00 | 0.00 | 0.00 | 63 | 1017.5 |
| 20260506212354 | 27 | 319 | 0.0 | 3.0 | 0.00 | 0.00 | 0.00 | 63 | 1017.5 |
| 20260506212152 | 27 | 319 | 0.0 | 3.0 | 0.00 | 0.00 | 0.00 | 63 | 1017.5 |
| 20260506211653 | 27 | 307 | 0.0 | 0.0 | 0.00 | 0.00 | 0.00 | 62 | 1017.5 |
| 20260506211254 | 27 | 307 | 0.0 | 0.0 | 0.00 | 0.00 | 0.00 | 61 | 1017.5 |
| 20260506211153 | 28 | 307 | 0.0 | 0.0 | 0.00 | 0.00 | 0.00 | 61 | 1017.5 |
| 20260506210653 | 28 | 307 | 0.0 | 1.0 | 0.00 | 0.00 | 0.00 | 61 | 1017.5 |
| 20260506210153 | 28 | 305 | 0.0 | 0.0 | 0.00 | 0.00 | 0.00 | 61 | 1017.4 |
| 20260506205653 | 28 | 305 | 0.0 | 4.0 | 0.00 | 0.00 | 0.00 | 60 | 1017.5 |
| 20260506205153 | 28 | 310 | 3.0 | 7.0 | 0.00 | 0.00 | 0.00 | 60 | 1017.4 |
| 20260506205054 | 28 | 319 | 2.0 | 7.0 | 0.00 | 0.00 | 0.00 | 60 | 1017.5 |
| 20260506204653 | 28 | 298 | 3.0 | 7.0 | 0.00 | 0.00 | 0.00 | 60 | 1017.6 |
| 20260506204153 | 28 | 255 | 0.0 | 4.0 | 0.00 | 0.00 | 0.00 | 59 | 1017.5 |
| 20260506203954 | 28 | 323 | 0.0 | 4.0 | 0.00 | 0.00 | 0.00 | 58 | 1017.6 |
| 20260506203653 | 28 | 329 | 0.0 | 7.0 | 0.00 | 0.00 | 0.00 | 58 | 1017.6 |
| 20260506203153 | 29 | 265 | 0.0 | 4.0 | 0.00 | 0.00 | 0.00 | 58 | 1017.5 |
| 20260506202854 | 29 | 316 | 1.0 | 4.0 | 0.00 | 0.00 | 0.00 | 58 | 1017.4 |
| 20260506202653 | 29 | 291 | 1.0 | 5.0 | 0.00 | 0.00 | 0.00 | 58 | 1017.3 |
| 20260506202153 | 29 | 324 | 5.0 | 8.0 | 0.00 | 0.00 | 0.00 | 58 | 1017.3 |
| 20260506201754 | 29 | 323 | 2.0 | 4.0 | 0.00 | 0.00 | 0.00 | 57 | 1017.3 |
| 20260506201653 | 29 | 293 | 4.0 | 4.0 | 0.00 | 0.00 | 0.00 | 57 | 1017.4 |
| 20260506201153 | 29 | 316 | 0.0 | 4.0 | 0.00 | 0.00 | 0.00 | 57 | 1017.4 |
| 20260506200653 | 29 | 313 | 0.0 | 5.0 | 0.00 | 0.00 | 0.00 | 57 | 1017.4 |
| 20260506200153 | 29 | 313 | 0.0 | 6.0 | 0.00 | 0.00 | 0.00 | 56 | 1017.4 |
| 20260506195653 | 30 | 315 | 1.0 | 5.0 | 0.00 | 0.00 | 0.00 | 56 | 1017.5 |
| 20260506195554 | 30 | 315 | 1.0 | 5.0 | 0.00 | 0.00 | 0.00 | 56 | 1017.4 |
| 20260506195153 | 30 | 340 | 2.0 | 4.0 | 0.00 | 0.00 | 0.00 | 56 | 1017.4 |
| 20260506194653 | 30 | 0 | 0.0 | 2.0 | 0.00 | 0.00 | 0.00 | 55 | 1017.4 |
| 20260506194454 | 30 | 0 | 0.0 | 5.0 | 0.00 | 0.00 | 0.00 | 55 | 1017.4 |
| 20260506194153 | 30 | 324 | 1.0 | 5.0 | 0.00 | 0.00 | 0.00 | 55 | 1017.4 |
| 20260506193653 | 30 | 341 | 2.0 | 4.0 | 0.00 | 0.00 | 0.00 | 54 | 1017.4 |
| 20260506193354 | 30 | 327 | 0.0 | 5.0 | 0.00 | 0.00 | 0.00 | 54 | 1017.4 |
| 20260506193153 | 30 | 327 | 0.0 | 6.0 | 0.00 | 0.00 | 0.00 | 54 | 1017.3 |
| 20260506192653 | 31 | 323 | 6.0 | 8.0 | 0.00 | 0.00 | 0.00 | 53 | 1017.3 |
| 20260506192254 | 31 | 303 | 3.0 | 8.0 | 0.00 | 0.00 | 0.00 | 52 | 1017.3 |
| 20260506192153 | 31 | 316 | 3.0 | 8.0 | 0.00 | 0.00 | 0.00 | 52 | 1017.3 |
| 20260506191653 | 31 | 324 | 5.0 | 8.0 | 0.00 | 0.00 | 0.00 | 51 | 1017.4 |
| 20260506191153 | 32 | 313 | 6.0 | 6.0 | 0.00 | 0.00 | 0.00 | 49 | 1017.4 |
| 20260506190653 | 34 | 315 | 5.0 | 6.0 | 0.00 | 0.00 | 0.00 | 48 | 1017.4 |
| 20260506190153 | 35 | 340 | 0.0 | 7.0 | 0.00 | 0.00 | 0.00 | 46 | 1017.3 |
| 20260506190054 | 35 | 331 | 1.0 | 7.0 | 0.00 | 0.00 | 0.00 | 46 | 1017.3 |
| 20260506185653 | 35 | 358 | 0.0 | 3.0 | 0.00 | 0.00 | 0.00 | 48 | 1017.3 |
| 20260506185153 | 34 | 337 | 0.0 | 8.0 | 0.00 | 0.00 | 0.00 | 49 | 1017.3 |
| 20260506184954 | 34 | 323 | 3.0 | 8.0 | 0.00 | 0.00 | 0.00 | 48 | 1017.3 |
| 20260506184653 | 34 | 293 | 1.0 | 7.0 | 0.00 | 0.00 | 0.00 | 48 | 1017.3 |
| 20260506184153 | 34 | 322 | 1.0 | 7.0 | 0.00 | 0.00 | 0.00 | 48 | 1017.2 |
| 20260506183854 | 34 | 322 | 3.0 | 10.0 | 0.00 | 0.00 | 0.00 | 49 | 1017.2 |
| 20260506183653 | 34 | 327 | 3.0 | 10.0 | 0.00 | 0.00 | 0.00 | 49 | 1017.1 |
| 20260506183153 | 34 | 315 | 4.0 | 9.0 | 0.00 | 0.00 | 0.00 | 49 | 1017.1 |
| 20260506182754 | 34 | 299 | 2.0 | 9.0 | 0.00 | 0.00 | 0.00 | 49 | 1017.2 |
| 20260506182653 | 34 | 312 | 5.0 | 8.0 | 0.00 | 0.00 | 0.00 | 49 | 1017.1 |
| 20260506182153 | 35 | 312 | 6.0 | 8.0 | 0.00 | 0.00 | 0.00 | 49 | 1017.1 |
| 20260506181653 | 35 | 305 | 3.0 | 8.0 | 0.00 | 0.00 | 0.00 | 49 | 1017.1 |
| 20260506181153 | 34 | 289 | 2.0 | 9.0 | 0.00 | 0.00 | 0.00 | 49 | 1017.1 |
| 20260506180653 | 35 | 284 | 9.0 | 9.0 | 0.00 | 0.00 | 0.00 | 50 | 1016.9 |
| 20260506180554 | 35 | 262 | 2.0 | 7.0 | 0.00 | 0.00 | 0.00 | 49 | 1017.1 |
| 20260506180153 | 35 | 315 | 3.0 | 10.0 | 0.00 | 0.00 | 0.00 | 49 | 1016.9 |
| 20260506175653 | 35 | 300 | 4.0 | 9.0 | 0.00 | 0.00 | 0.00 | 49 | 1016.9 |
| 20260506175454 | 35 | 320 | 4.0 | 9.0 | 0.00 | 0.00 | 0.00 | 49 | 1017.1 |
| 20260506175153 | 34 | 288 | 4.0 | 14.0 | 0.00 | 0.00 | 0.00 | 48 | 1016.9 |
| 20260506174653 | 35 | 257 | 4.0 | 13.0 | 0.00 | 0.00 | 0.00 | 46 | 1017.1 |
| 20260506174354 | 35 | 320 | 5.0 | 12.0 | 0.00 | 0.00 | 0.00 | 45 | 1017.1 |
| 20260506174153 | 35 | 312 | 8.0 | 11.0 | 0.00 | 0.00 | 0.00 | 45 | 1016.9 |
| 20260506173653 | 35 | 286 | 8.0 | 11.0 | 0.00 | 0.00 | 0.00 | 42 | 1016.8 |
| 20260506173254 | 35 | 316 | 5.0 | 9.0 | 0.00 | 0.00 | 0.00 | 43 | 1016.9 |
| 20260506173153 | 35 | 312 | 3.0 | 9.0 | 0.00 | 0.00 | 0.00 | 42 | 1016.8 |
| 20260506172653 | 36 | 319 | 6.0 | 12.0 | 0.00 | 0.00 | 0.00 | 41 | 1016.7 |
| 20260506172153 | 36 | 319 | 5.0 | 9.0 | 0.00 | 0.00 | 0.00 | 39 | 1016.8 |
| 20260506171653 | 36 | 299 | 3.0 | 9.0 | 0.00 | 0.00 | 0.00 | 40 | 1016.7 |
| 20260506171153 | 36 | 277 | 2.0 | 10.0 | 0.00 | 0.00 | 0.00 | 41 | 1016.6 |
| 20260506171054 | 36 | 327 | 4.0 | 10.0 | 0.00 | 0.00 | 0.00 | 41 | 1016.6 |
| 20260506170653 | 36 | 302 | 1.0 | 8.0 | 0.00 | 0.00 | 0.00 | 42 | 1016.7 |
| 20260506170153 | 36 | 330 | 4.0 | 15.0 | 0.00 | 0.00 | 0.00 | 40 | 1016.7 |
| 20260506165954 | 36 | 334 | 5.0 | 15.0 | 0.00 | 0.00 | 0.00 | 41 | 1016.7 |
| 20260506165653 | 37 | 317 | 6.0 | 11.0 | 0.00 | 0.00 | 0.00 | 41 | 1016.7 |
| 20260506165153 | 37 | 300 | 7.0 | 12.0 | 0.00 | 0.00 | 0.00 | 41 | 1016.7 |
| 20260506164854 | 36 | 217 | 2.0 | 15.0 | 0.00 | 0.00 | 0.00 | 41 | 1016.7 |
| 20260506164653 | 36 | 306 | 7.0 | 15.0 | 0.00 | 0.00 | 0.00 | 41 | 1016.6 |
| 20260506164153 | 36 | 277 | 3.0 | 15.0 | 0.00 | 0.00 | 0.00 | 41 | 1016.6 |
| 20260506163754 | 36 | 298 | 10.0 | 10.0 | 0.00 | 0.00 | 0.00 | 42 | 1016.7 |
| 20260506163653 | 36 | 285 | 4.0 | 9.0 | 0.00 | 0.00 | 0.00 | 42 | 1016.7 |
| 20260506163153 | 36 | 299 | 0.0 | 8.0 | 0.00 | 0.00 | 0.00 | 40 | 1016.6 |
| 20260506162653 | 36 | 323 | 6.0 | 8.0 | 0.00 | 0.00 | 0.00 | 38 | 1016.6 |
| 20260506162153 | 36 | 258 | 1.0 | 10.0 | 0.00 | 0.00 | 0.00 | 39 | 1016.7 |
| 20260506161653 | 36 | 288 | 4.0 | 12.0 | 0.00 | 0.00 | 0.00 | 38 | 1016.6 |
| 20260506161554 | 36 | 309 | 6.0 | 16.0 | 0.00 | 0.00 | 0.00 | 37 | 1016.7 |
| 20260506161153 | 36 | 305 | 9.0 | 16.0 | 0.00 | 0.00 | 0.00 | 38 | 1016.7 |
| 20260506160653 | 37 | 292 | 2.0 | 11.0 | 0.00 | 0.00 | 0.00 | 37 | 1016.7 |
| 20260506160455 | 37 | 299 | 5.0 | 11.0 | 0.00 | 0.00 | 0.00 | 37 | 1016.7 |
| 20260506160153 | 38 | 312 | 9.0 | 9.0 | 0.00 | 0.00 | 0.00 | 37 | 1016.7 |
| 20260506155653 | 38 | 303 | 2.0 | 10.0 | 0.00 | 0.00 | 0.00 | 36 | 1016.8 |
| 20260506155354 | 39 | 281 | 4.0 | 14.0 | 0.00 | 0.00 | 0.00 | 35 | 1016.8 |
| 20260506155153 | 39 | 305 | 5.0 | 14.0 | 0.00 | 0.00 | 0.00 | 35 | 1016.8 |
| 20260506154653 | 40 | 316 | 3.0 | 13.0 | 0.00 | 0.00 | 0.00 | 35 | 1016.7 |
| 20260506154254 | 40 | 320 | 6.0 | 15.0 | 0.00 | 0.00 | 0.00 | 37 | 1016.7 |
| 20260506154153 | 40 | 234 | 3.0 | 15.0 | 0.00 | 0.00 | 0.00 | 37 | 1016.8 |
| 20260506153653 | 40 | 329 | 4.0 | 14.0 | 0.00 | 0.00 | 0.00 | 36 | 1016.7 |
| 20260506153153 | 40 | 264 | 4.0 | 12.0 | 0.00 | 0.00 | 0.00 | 36 | 1016.8 |
| 20260506152653 | 40 | 248 | 8.0 | 12.0 | 0.00 | 0.00 | 0.00 | 35 | 1016.8 |
| 20260506152153 | 40 | 310 | 5.0 | 13.0 | 0.00 | 0.00 | 0.00 | 33 | 1016.7 |
| 20260506152054 | 40 | 291 | 6.0 | 13.0 | 0.00 | 0.00 | 0.00 | 34 | 1016.7 |
| 20260506151653 | 40 | 319 | 8.0 | 11.0 | 0.00 | 0.00 | 0.00 | 36 | 1016.6 |
| 20260506151153 | 39 | 303 | 6.0 | 13.0 | 0.00 | 0.00 | 0.00 | 36 | 1016.6 |
| 20260506150954 | 39 | 267 | 9.0 | 13.0 | 0.00 | 0.00 | 0.00 | 35 | 1016.7 |
| 20260506150653 | 39 | 302 | 5.0 | 12.0 | 0.00 | 0.00 | 0.00 | 36 | 1016.7 |
| 20260506150153 | 39 | 302 | 9.0 | 14.0 | 0.00 | 0.00 | 0.00 | 35 | 1016.8 |
| 20260506145854 | 40 | 315 | 7.0 | 16.0 | 0.00 | 0.00 | 0.00 | 35 | 1016.8 |
| 20260506145653 | 39 | 289 | 14.0 | 16.0 | 0.00 | 0.00 | 0.00 | 35 | 1016.8 |
| 20260506145153 | 39 | 288 | 4.0 | 10.0 | 0.00 | 0.00 | 0.00 | 39 | 1016.8 |
| 20260506144755 | 38 | 309 | 5.0 | 14.0 | 0.00 | 0.00 | 0.00 | 38 | 1016.8 |
| 20260506144653 | 38 | 306 | 5.0 | 14.0 | 0.00 | 0.00 | 0.00 | 38 | 1016.9 |
| 20260506144153 | 39 | 291 | 3.0 | 12.0 | 0.00 | 0.00 | 0.00 | 38 | 1016.9 |
| 20260506143653 | 39 | 296 | 8.0 | 16.0 | 0.00 | 0.00 | 0.00 | 37 | 1016.8 |
| 20260506143153 | 40 | 299 | 7.0 | 14.0 | 0.00 | 0.00 | 0.00 | 36 | 1016.9 |
| 20260506142653 | 40 | 302 | 4.0 | 11.0 | 0.00 | 0.00 | 0.00 | 35 | 1016.8 |
| 20260506142554 | 40 | 289 | 5.0 | 11.0 | 0.00 | 0.00 | 0.00 | 36 | 1016.8 |
| 20260506142153 | 39 | 298 | 4.0 | 11.0 | 0.00 | 0.00 | 0.00 | 35 | 1016.8 |
| 20260506141653 | 40 | 303 | 8.0 | 12.0 | 0.00 | 0.00 | 0.00 | 36 | 1016.7 |
| 20260506141454 | 40 | 282 | 9.0 | 12.0 | 0.00 | 0.00 | 0.00 | 35 | 1016.7 |
| 20260506141153 | 40 | 264 | 10.0 | 11.0 | 0.00 | 0.00 | 0.00 | 35 | 1016.7 |
| 20260506140653 | 39 | 313 | 3.0 | 9.0 | 0.00 | 0.00 | 0.00 | 38 | 1016.7 |
| 20260506140354 | 38 | 320 | 3.0 | 6.0 | 0.00 | 0.00 | 0.00 | 41 | 1016.7 |
| 20260506140153 | 38 | 307 | 4.0 | 6.0 | 0.00 | 0.00 | 0.00 | 39 | 1016.7 |
| 20260506135653 | 38 | 293 | 1.0 | 9.0 | 0.00 | 0.00 | 0.00 | 38 | 1016.7 |
| 20260506135254 | 38 | 330 | 4.0 | 10.0 | 0.00 | 0.00 | 0.00 | 39 | 1016.7 |
| 20260506135153 | 37 | 285 | 3.0 | 10.0 | 0.00 | 0.00 | 0.00 | 37 | 1016.7 |
| 20260506134653 | 39 | 319 | 8.0 | 8.0 | 0.00 | 0.00 | 0.00 | 37 | 1016.7 |
| 20260506134153 | 37 | 262 | 1.0 | 7.0 | 0.00 | 0.00 | 0.00 | 39 | 1016.7 |
| 20260506133653 | 37 | 286 | 2.0 | 8.0 | 0.00 | 0.00 | 0.00 | 38 | 1016.7 |
| 20260506133153 | 37 | 257 | 3.0 | 10.0 | 0.00 | 0.00 | 0.00 | 38 | 1016.7 |
| 20260506133054 | 38 | 299 | 4.0 | 9.0 | 0.00 | 0.00 | 0.00 | 38 | 1016.8 |
| 20260506132653 | 37 | 272 | 6.0 | 7.0 | 0.00 | 0.00 | 0.00 | 38 | 1016.8 |
| 20260506132153 | 38 | 306 | 1.0 | 6.0 | 0.00 | 0.00 | 0.00 | 38 | 1016.9 |
| 20260506131954 | 38 | 288 | 3.0 | 6.0 | 0.00 | 0.00 | 0.00 | 38 | 1016.8 |
| 20260506131653 | 38 | 305 | 0.0 | 5.0 | 0.00 | 0.00 | 0.00 | 39 | 1016.8 |
| 20260506131153 | 37 | 243 | 0.0 | 7.0 | 0.00 | 0.00 | 0.00 | 38 | 1016.8 |
| 20260506130854 | 37 | 315 | 3.0 | 7.0 | 0.00 | 0.00 | 0.00 | 38 | 1016.8 |
| 20260506130653 | 37 | 298 | 3.0 | 7.0 | 0.00 | 0.00 | 0.00 | 39 | 1016.8 |
| 20260506130154 | 37 | 298 | 0.0 | 9.0 | 0.00 | 0.00 | 0.00 | 38 | 1016.9 |
| 20260506125755 | 37 | 277 | 8.0 | 9.0 | 0.00 | 0.00 | 0.00 | 37 | 1016.8 |
| 20260506125653 | 38 | 307 | 7.0 | 10.0 | 0.00 | 0.00 | 0.00 | 39 | 1016.9 |
| 20260506125153 | 38 | 303 | 7.0 | 11.0 | 0.00 | 0.00 | 0.00 | 38 | 1016.8 |
| 20260506124653 | 39 | 292 | 4.0 | 12.0 | 0.00 | 0.00 | 0.00 | 36 | 1016.7 |
| 20260506124153 | 40 | 313 | 4.0 | 7.0 | 0.00 | 0.00 | 0.00 | 36 | 1016.6 |
| 20260506123653 | 40 | 268 | 1.0 | 10.0 | 0.00 | 0.00 | 0.00 | 35 | 1016.5 |
| 20260506123554 | 40 | 312 | 3.0 | 10.0 | 0.00 | 0.00 | 0.00 | 35 | 1016.6 |
| 20260506123153 | 41 | 300 | 4.0 | 9.0 | 0.00 | 0.00 | 0.00 | 34 | 1016.7 |
| 20260506122653 | 40 | 300 | 3.0 | 10.0 | 0.00 | 0.00 | 0.00 | 35 | 1016.7 |
| 20260506122454 | 40 | 14 | 3.0 | 8.0 | 0.00 | 0.00 | 0.00 | 38 | 1016.6 |
| 20260506122153 | 39 | 164 | 0.0 | 8.0 | 0.00 | 0.00 | 0.00 | 39 | 1016.7 |
| 20260506121653 | 39 | 319 | 7.0 | 11.0 | 0.00 | 0.00 | 0.00 | 39 | 1016.8 |
| 20260506121354 | 39 | 288 | 3.0 | 9.0 | 0.00 | 0.00 | 0.00 | 38 | 1016.8 |
| 20260506121153 | 39 | 334 | 6.0 | 8.0 | 0.00 | 0.00 | 0.00 | 39 | 1016.8 |
| 20260506120653 | 38 | 312 | 4.0 | 8.0 | 0.00 | 0.00 | 0.00 | 39 | 1016.8 |
| 20260506120255 | 38 | 164 | 3.0 | 6.0 | 0.00 | 0.00 | 0.00 | 41 | 1016.8 |
| 20260506120154 | 38 | 282 | 1.0 | 6.0 | 0.00 | 0.00 | 0.00 | 41 | 1016.8 |
| 20260506115653 | 38 | 302 | 3.0 | 8.0 | 0.00 | 0.00 | 0.00 | 42 | 1016.8 |
| 20260506115154 | 38 | 268 | 5.0 | 8.0 | 0.00 | 0.00 | 0.00 | 39 | 1016.8 |
| 20260506114653 | 38 | 306 | 4.0 | 10.0 | 0.00 | 0.00 | 0.00 | 41 | 1016.7 |
| 20260506114154 | 38 | 289 | 0.0 | 9.0 | 0.00 | 0.00 | 0.00 | 40 | 1016.8 |
| 20260506114055 | 38 | 305 | 3.0 | 9.0 | 0.00 | 0.00 | 0.00 | 38 | 1016.8 |
| 20260506113654 | 40 | 313 | 6.0 | 9.0 | 0.00 | 0.00 | 0.00 | 38 | 1016.7 |
| 20260506113154 | 41 | 323 | 5.0 | 7.0 | 0.00 | 0.00 | 0.00 | 41 | 1016.7 |
| 20260506112955 | 40 | 309 | 2.0 | 10.0 | 0.00 | 0.00 | 0.00 | 39 | 1016.7 |
| 20260506112654 | 40 | 236 | 0.0 | 10.0 | 0.00 | 0.00 | 0.00 | 38 | 1016.7 |
| 20260506112154 | 39 | 260 | 2.0 | 6.0 | 0.00 | 0.00 | 0.00 | 40 | 1016.8 |
| 20260506111855 | 38 | 303 | 1.0 | 6.0 | 0.00 | 0.00 | 0.00 | 42 | 1016.7 |
| 20260506111654 | 38 | 323 | 3.0 | 6.0 | 0.00 | 0.00 | 0.00 | 42 | 1016.8 |
| 20260506111154 | 37 | 303 | 0.0 | 8.0 | 0.00 | 0.00 | 0.00 | 43 | 1016.8 |
| 20260506110755 | 38 | 319 | 3.0 | 8.0 | 0.00 | 0.00 | 0.00 | 41 | 1016.8 |
| 20260506110654 | 38 | 309 | 0.0 | 8.0 | 0.00 | 0.00 | 0.00 | 41 | 1016.8 |
| 20260506110154 | 39 | 291 | 3.0 | 5.0 | 0.00 | 0.00 | 0.00 | 39 | 1016.8 |
| 20260506105654 | 39 | 309 | 2.0 | 8.0 | 0.00 | 0.00 | 0.00 | 40 | 1016.8 |
| 20260506105154 | 39 | 300 | 3.0 | 9.0 | 0.00 | 0.00 | 0.00 | 39 | 1016.8 |
| 20260506104654 | 40 | 240 | 4.0 | 9.0 | 0.00 | 0.00 | 0.00 | 38 | 1016.6 |
| 20260506104555 | 40 | 210 | 2.0 | 9.0 | 0.00 | 0.00 | 0.00 | 39 | 1016.7 |
| 20260506104154 | 40 | 227 | 0.0 | 7.0 | 0.00 | 0.00 | 0.00 | 39 | 1016.7 |
| 20260506103654 | 40 | 299 | 1.0 | 3.0 | 0.00 | 0.00 | 0.00 | 41 | 1016.8 |
| 20260506103455 | 39 | 230 | 0.0 | 7.0 | 0.00 | 0.00 | 0.00 | 43 | 1016.8 |
| 20260506103154 | 39 | 251 | 2.0 | 7.0 | 0.00 | 0.00 | 0.00 | 41 | 1016.8 |
| 20260506102654 | 39 | 306 | 2.0 | 10.0 | 0.00 | 0.00 | 0.00 | 40 | 1016.8 |
| 20260506102355 | 39 | 0 | 0.0 | 10.0 | 0.00 | 0.00 | 0.00 | 41 | 1016.7 |
| 20260506102154 | 39 | 149 | 4.0 | 9.0 | 0.00 | 0.00 | 0.00 | 41 | 1016.7 |
| 20260506101654 | 39 | 296 | 6.0 | 9.0 | 0.00 | 0.00 | 0.00 | 44 | 1016.8 |
| 20260506101256 | 39 | 199 | 1.0 | 9.0 | 0.00 | 0.00 | 0.00 | 40 | 1016.8 |
| 20260506101154 | 39 | 296 | 6.0 | 9.0 | 0.00 | 0.00 | 0.00 | 39 | 1016.8 |
| 20260506100654 | 39 | 296 | 5.0 | 7.0 | 0.00 | 0.00 | 0.00 | 42 | 1016.8 |
| 20260506100154 | 39 | 292 | 2.0 | 7.0 | 0.00 | 0.00 | 0.00 | 43 | 1016.9 |
| 20260506095654 | 38 | 310 | 1.0 | 8.0 | 0.00 | 0.00 | 0.00 | 45 | 1016.9 |
| 20260506095154 | 37 | 247 | 0.0 | 8.0 | 0.00 | 0.00 | 0.00 | 44 | 1016.9 |
| 20260506095055 | 37 | 268 | 3.0 | 8.0 | 0.00 | 0.00 | 0.00 | 43 | 1016.9 |
| 20260506094654 | 37 | 239 | 6.0 | 8.0 | 0.00 | 0.00 | 0.00 | 43 | 1016.8 |
| 20260506094154 | 37 | 202 | 0.0 | 9.0 | 0.00 | 0.00 | 0.00 | 45 | 1016.9 |
| 20260506093955 | 37 | 313 | 4.0 | 9.0 | 0.00 | 0.00 | 0.00 | 46 | 1016.8 |
| 20260506093654 | 37 | 312 | 3.0 | 9.0 | 0.00 | 0.00 | 0.00 | 46 | 1016.8 |
| 20260506093154 | 37 | 232 | 4.0 | 8.0 | 0.00 | 0.00 | 0.00 | 47 | 1016.9 |
| 20260506092855 | 36 | 258 | 1.0 | 7.0 | 0.00 | 0.00 | 0.00 | 47 | 1016.9 |
| 20260506092654 | 36 | 222 | 2.0 | 5.0 | 0.00 | 0.00 | 0.00 | 48 | 1016.9 |
| 20260506092154 | 35 | 322 | 3.0 | 9.0 | 0.00 | 0.00 | 0.00 | 45 | 1017.1 |
| 20260506091755 | 36 | 322 | 7.0 | 7.0 | 0.00 | 0.00 | 0.00 | 49 | 1016.9 |
| 20260506091654 | 36 | 295 | 1.0 | 7.0 | 0.00 | 0.00 | 0.00 | 49 | 1016.9 |
| 20260506091154 | 35 | 243 | 2.0 | 9.0 | 0.00 | 0.00 | 0.00 | 48 | 1016.9 |